Погода в Борзе

Россия / Забайкальский край     50°23′15″N   116°31′24″E
темп.,
°C
ветер,
м/с
пор.,
м/с
влажн.,
%
обл.,
%
осадки,
мм/ч
давл.,
гПа
погр.,
м
18 мая, ср
ср1800:00+13зсз5114612 0.0 1006223
03:00+11юз225588 0.0 100723
06:00+10зюз226024 0.0 100723
09:00+16зсз4541100 0.0 1007664
12:00+20з553082 0.0 10062031
15:00+22зсз6723100 0.0 10043557
18:00+20с9103034 0.0 10041712
21:00+14ссз225113 0.5 100728
19 мая, чт
чт1900:00+12с22565 0.0 100911
03:00+10сз22609 0.0 101012
06:00+10ссз116072 0.0 101111
09:00+17зсз34366 0.0 1010486
12:00+22зсз662147 0.0 10092325
15:00+25зсз781956 0.0 10072814
18:00+25зсз78195 0.0 10052969
21:00+20зюз332730 0.0 100531
20 мая, пт
пт2000:00+17зюз343273 0.0 100538
03:00+15з224045 0.0 100511
06:00+14зсз375081 0.0 1005113
09:00+19сз68415 0.0 10051000
12:00+23сз8112415 0.0 10042552
15:00+24сз81118100 0.0 10023016
18:00+24сз714165 0.0 10003871
21:00+20сз49192 0.0 1000134
21 мая, сб
сб2100:00+16с33232 0.0 100319
03:00+12ссв33375 0.0 100637
06:00+10ссв33495 0.0 100837
09:00+16св34355 0.0 1009912
12:00+20с23215 0.0 10081917
15:00+23сз331680 0.0 10072262
18:00+23сз331545 0.0 10052178
21:00+18в002212 0.0 100411
22 мая, вс
вс2200:00+16ююв22245 0.0 100413
03:00+15ю2225100 0.0 100319
06:00+12зсз41087100 1.8 1003545
09:00+15зсз810570 2.6 10031125
12:00+19зсз10123418 0.0 10022066
15:00+22зсз12162168 0.0 10003621
18:00+21сз9152024 0.0 9993574
21:00+18ссз712285 0.0 1001477